Time,TemperatureF,DewpointF,PressureIn,WindDirection,WindDirectionDegrees,WindSpeedMPH,WindSpeedGustMPH,Humidity,HourlyPrecipIn,Conditions,Clouds,dailyrainin,SoftwareType,DateUTC
2013-11-07 00:14:00,60.4,29.0,30.05,NW,319,1.0,2.0,31,0.00,,,0.00,weatherlink.com 1.10,2013-11-07 08:14:00,
2013-11-07 00:29:00,60.3,29.0,30.05,NW,308,0.0,2.0,30,0.00,,,0.00,weatherlink.com 1.10,2013-11-07 08:29:00,
2013-11-07 00:44:00,59.6,28.0,30.05,WNW,302,0.0,2.0,30,0.00,,,0.00,weatherlink.com 1.10,2013-11-07 08:44:00,
2013-11-07 00:59:00,59.8,26.0,30.05,NNW,329,1.0,3.0,28,0.00,,,0.00,weatherlink.com 1.10,2013-11-07 08:59:00,
2013-11-07 01:14:00,59.9,25.0,30.05,NNW,333,2.0,3.0,26,0.00,,,0.00,weatherlink.com 1.10,2013-11-07 09:14:00,
2013-11-07 01:29:00,60.2,24.0,30.05,NW,325,1.0,3.0,25,0.00,,,0.00,weatherlink.com 1.10,2013-11-07 09:29:00,
2013-11-07 01:44:00,59.6,24.0,30.04,WNW,298,0.0,1.0,26,0.00,,,0.00,weatherlink.com 1.10,2013-11-07 09:44:00,
2013-11-07 01:59:00,59.6,24.0,30.04,WNW,301,1.0,2.0,25,0.00,,,0.00,weatherlink.com 1.10,2013-11-07 09:59:00,
2013-11-07 02:14:00,59.7,24.0,30.04,NW,319,0.0,3.0,25,0.00,,,0.00,weatherlink.com 1.10,2013-11-07 10:14:00,
2013-11-07 02:29:00,59.7,23.0,30.03,NW,319,0.0,1.0,24,0.00,,,0.00,weatherlink.com 1.10,2013-11-07 10:29:00,
2013-11-07 02:44:00,59.4,23.0,30.03,WNW,290,0.0,1.0,25,0.00,,,0.00,weatherlink.com 1.10,2013-11-07 10:44:00,
2013-11-07 02:59:00,59.1,24.0,30.04,NW,305,2.0,2.0,26,0.00,,,0.00,weatherlink.com 1.10,2013-11-07 10:59:00,
2013-11-07 03:14:00,59.1,23.0,30.03,NW,307,0.0,3.0,25,0.00,,,0.00,weatherlink.com 1.10,2013-11-07 11:14:00,
2013-11-07 03:29:00,58.2,25.0,30.04,SSE,167,0.0,0.0,28,0.00,,,0.00,weatherlink.com 1.10,2013-11-07 11:29:00,
2013-11-07 03:44:00,56.1,27.0,30.04,SSE,167,0.0,0.0,33,0.00,,,0.00,weatherlink.com 1.10,2013-11-07 11:44:00,
2013-11-07 03:59:00,54.6,29.0,30.04,SSE,167,0.0,0.0,37,0.00,,,0.00,weatherlink.com 1.10,2013-11-07 11:59:00,
2013-11-07 04:14:00,53.2,29.0,30.04,SSE,167,0.0,0.0,40,0.00,,,0.00,weatherlink.com 1.10,2013-11-07 12:14:00,
2013-11-07 04:29:00,52.9,31.0,30.04,SSE,167,0.0,0.0,44,0.00,,,0.00,weatherlink.com 1.10,2013-11-07 12:29:00,
2013-11-07 04:44:00,52.2,31.0,30.04,SSE,167,0.0,0.0,45,0.00,,,0.00,weatherlink.com 1.10,2013-11-07 12:44:00,
2013-11-07 05:00:00,51.8,33.0,30.03,SSE,167,0.0,0.0,49,0.00,,,0.00,weatherlink.com 1.10,2013-11-07 13:00:00,
2013-11-07 05:15:00,51.5,34.0,30.04,SW,233,0.0,0.0,51,0.00,,,0.00,weatherlink.com 1.10,2013-11-07 13:15:00,
2013-11-07 05:30:00,51.5,33.0,30.04,SW,233,0.0,0.0,49,0.00,,,0.00,weatherlink.com 1.10,2013-11-07 13:30:00,
2013-11-07 05:45:00,51.8,33.0,30.04,SW,233,0.0,0.0,49,0.00,,,0.00,weatherlink.com 1.10,2013-11-07 13:45:00,
2013-11-07 06:00:00,51.4,34.0,30.05,SW,233,0.0,0.0,51,0.00,,,0.00,weatherlink.com 1.10,2013-11-07 14:00:00,
2013-11-07 06:15:00,50.8,35.0,30.05,SW,233,0.0,0.0,55,0.00,,,0.00,weatherlink.com 1.10,2013-11-07 14:15:00,
2013-11-07 06:30:00,50.8,35.0,30.05,SW,233,0.0,0.0,56,0.00,,,0.00,weatherlink.com 1.10,2013-11-07 14:30:00,
2013-11-07 06:45:00,51.2,36.0,30.05,SW,233,0.0,0.0,57,0.00,,,0.00,weatherlink.com 1.10,2013-11-07 14:45:00,
2013-11-07 07:00:00,52.3,36.0,30.05,SW,234,0.0,0.0,54,0.00,,,0.00,weatherlink.com 1.10,2013-11-07 15:00:00,
2013-11-07 07:15:00,53.0,38.0,30.06,SW,233,0.0,0.0,58,0.00,,,0.00,weatherlink.com 1.10,2013-11-07 15:15:00,
2013-11-07 07:30:00,55.5,38.0,30.06,SW,233,0.0,0.0,52,0.00,,,0.00,weatherlink.com 1.10,2013-11-07 15:30:00,
2013-11-07 07:45:00,59.0,39.0,30.07,SW,233,0.0,0.0,47,0.00,,,0.00,weatherlink.com 1.10,2013-11-07 15:45:00,
2013-11-07 08:00:00,61.1,36.0,30.07,SW,233,0.0,0.0,40,0.00,,,0.00,weatherlink.com 1.10,2013-11-07 16:00:00,
2013-11-07 08:15:00,64.3,36.0,30.07,WSW,253,0.0,0.0,35,0.00,,,0.00,weatherlink.com 1.10,2013-11-07 16:15:00,
2013-11-07 08:30:00,66.6,34.0,30.07,WSW,253,0.0,0.0,30,0.00,,,0.00,weatherlink.com 1.10,2013-11-07 16:30:00,
2013-11-07 08:45:00,68.8,33.0,30.07,NW,311,0.0,2.0,27,0.00,,,0.00,weatherlink.com 1.10,2013-11-07 16:45:00,
2013-11-07 09:00:00,70.0,34.0,30.07,NW,312,1.0,1.0,27,0.00,,,0.00,weatherlink.com 1.10,2013-11-07 17:00:00,
2013-11-07 09:15:00,71.2,31.0,30.07,WNW,296,0.0,2.0,23,0.00,,,0.00,weatherlink.com 1.10,2013-11-07 17:15:00,
2013-11-07 09:30:00,73.3,32.0,30.07,NNW,336,0.0,2.0,22,0.00,,,0.00,weatherlink.com 1.10,2013-11-07 17:30:00,
2013-11-07 09:45:00,75.8,32.0,30.07,NW,305,0.0,2.0,20,0.00,,,0.00,weatherlink.com 1.10,2013-11-07 17:45:00,
2013-11-07 10:00:00,78.1,27.0,30.07,NW,305,0.0,2.0,15,0.00,,,0.00,weatherlink.com 1.10,2013-11-07 18:00:00,
2013-11-07 10:15:00,79.6,25.0,30.06,WNW,285,2.0,2.0,13,0.00,,,0.00,weatherlink.com 1.10,2013-11-07 18:15:00,
2013-11-07 10:30:00,80.4,25.0,30.06,ENE,66,0.0,3.0,13,0.00,,,0.00,weatherlink.com 1.10,2013-11-07 18:30:00,
2013-11-07 10:45:00,81.1,24.0,30.05,SE,139,1.0,2.0,12,0.00,,,0.00,weatherlink.com 1.10,2013-11-07 18:45:00,
2013-11-07 11:01:00,82.0,26.0,30.04,SE,134,2.0,2.0,13,0.00,,,0.00,weatherlink.com 1.10,2013-11-07 19:01:00,
2013-11-07 11:16:00,83.0,16.0,30.04,East,96,0.0,2.0,8,0.00,,,0.00,weatherlink.com 1.10,2013-11-07 19:16:00,
2013-11-07 11:31:00,84.6,20.0,30.03,SE,138,1.0,2.0,9,0.00,,,0.00,weatherlink.com 1.10,2013-11-07 19:31:00,
2013-11-07 11:46:00,85.6,15.0,30.02,WNW,290,1.0,2.0,7,0.00,,,0.00,weatherlink.com 1.10,2013-11-07 19:46:00,
2013-11-07 12:01:00,86.4,12.0,30.01,WNW,293,0.0,3.0,6,0.00,,,0.00,weatherlink.com 1.10,2013-11-07 20:01:00,
2013-11-07 12:16:00,87.1,3.0,30.01,WSW,243,0.0,2.0,4,0.00,,,0.00,weatherlink.com 1.10,2013-11-07 20:16:00,
2013-11-07 12:31:00,86.8,-3.0,30.00,West,267,0.0,2.0,3,0.00,,,0.00,weatherlink.com 1.10,2013-11-07 20:31:00,
2013-11-07 12:46:00,86.0,21.0,29.99,WSW,238,2.0,5.0,9,0.00,,,0.00,weatherlink.com 1.10,2013-11-07 20:46:00,
2013-11-07 13:01:00,86.1,15.0,29.98,WSW,248,1.0,5.0,7,0.00,,,0.00,weatherlink.com 1.10,2013-11-07 21:01:00,
2013-11-07 13:16:00,85.9,15.0,29.98,WSW,248,3.0,6.0,7,0.00,,,0.00,weatherlink.com 1.10,2013-11-07 21:16:00,
2013-11-07 13:31:00,86.5,8.0,29.97,WSW,237,3.0,4.0,5,0.00,,,0.00,weatherlink.com 1.10,2013-11-07 21:31:00,
2013-11-07 13:46:00,87.0,12.0,29.97,WSW,240,0.0,5.0,6,0.00,,,0.00,weatherlink.com 1.10,2013-11-07 21:46:00,
2013-11-07 14:01:00,86.9,16.0,29.97,WSW,253,4.0,4.0,7,0.00,,,0.00,weatherlink.com 1.10,2013-11-07 22:01:00,
2013-11-07 14:16:00,87.0,8.0,29.96,SW,229,4.0,5.0,5,0.00,,,0.00,weatherlink.com 1.10,2013-11-07 22:16:00,
2013-11-07 14:31:00,86.6,15.0,29.96,SSE,166,3.0,4.0,7,0.00,,,0.00,weatherlink.com 1.10,2013-11-07 22:31:00,
2013-11-07 14:46:00,86.7,15.0,29.96,SW,236,2.0,4.0,7,0.00,,,0.00,weatherlink.com 1.10,2013-11-07 22:46:00,
2013-11-07 15:02:00,87.4,16.0,29.95,WSW,243,2.0,4.0,7,0.00,,,0.00,weatherlink.com 1.10,2013-11-07 23:02:00,
2013-11-07 15:17:00,87.8,19.0,29.95,SSW,210,1.0,4.0,8,0.00,,,0.00,weatherlink.com 1.10,2013-11-07 23:17:00,
2013-11-07 15:32:00,86.0,26.0,29.95,WNW,285,1.0,6.0,11,0.00,,,0.00,weatherlink.com 1.10,2013-11-07 23:32:00,
2013-11-07 15:47:00,84.2,28.0,29.95,West,262,2.0,6.0,13,0.00,,,0.00,weatherlink.com 1.10,2013-11-07 23:47:00,
2013-11-07 16:02:00,81.2,35.0,29.95,NNW,345,3.0,8.0,19,0.00,,,0.00,weatherlink.com 1.10,2013-11-08 00:02:00,
2013-11-07 16:17:00,77.4,36.0,29.95,WNW,290,3.0,6.0,22,0.00,,,0.00,weatherlink.com 1.10,2013-11-08 00:17:00,
2013-11-07 16:32:00,75.6,34.0,29.96,WNW,295,4.0,9.0,22,0.00,,,0.00,weatherlink.com 1.10,2013-11-08 00:32:00,
2013-11-07 16:47:00,74.6,34.0,29.95,WNW,293,4.0,6.0,23,0.00,,,0.00,weatherlink.com 1.10,2013-11-08 00:47:00,
2013-11-07 17:02:00,73.8,38.0,29.95,NW,304,3.0,5.0,27,0.00,,,0.00,weatherlink.com 1.10,2013-11-08 01:02:00,
2013-11-07 17:17:00,72.6,39.0,29.95,WNW,291,0.0,2.0,30,0.00,,,0.00,weatherlink.com 1.10,2013-11-08 01:17:00,
2013-11-07 17:32:00,71.5,41.0,29.95,WNW,290,0.0,1.0,33,0.00,,,0.00,weatherlink.com 1.10,2013-11-08 01:32:00,
2013-11-07 17:47:00,70.4,43.0,29.96,West,259,0.0,1.0,37,0.00,,,0.00,weatherlink.com 1.10,2013-11-08 01:47:00,
2013-11-07 18:02:00,69.4,44.0,29.96,West,259,0.0,1.0,40,0.00,,,0.00,weatherlink.com 1.10,2013-11-08 02:02:00,
2013-11-07 18:18:00,68.3,44.0,29.96,West,259,0.0,1.0,42,0.00,,,0.00,weatherlink.com 1.10,2013-11-08 02:18:00,
2013-11-07 18:33:00,67.8,44.0,29.96,West,260,0.0,1.0,42,0.00,,,0.00,weatherlink.com 1.10,2013-11-08 02:33:00,
2013-11-07 18:48:00,66.5,44.0,29.96,West,261,0.0,1.0,45,0.00,,,0.00,weatherlink.com 1.10,2013-11-08 02:48:00,
2013-11-07 19:03:00,65.9,44.0,29.96,West,261,0.0,0.0,46,0.00,,,0.00,weatherlink.com 1.10,2013-11-08 03:03:00,
2013-11-07 19:18:00,64.4,45.0,29.96,West,260,0.0,0.0,49,0.00,,,0.00,weatherlink.com 1.10,2013-11-08 03:18:00,
2013-11-07 19:33:00,63.0,45.0,29.96,West,260,0.0,0.0,52,0.00,,,0.00,weatherlink.com 1.10,2013-11-08 03:33:00,
2013-11-07 19:48:00,62.1,45.0,29.96,West,260,0.0,0.0,54,0.00,,,0.00,weatherlink.com 1.10,2013-11-08 03:48:00,
2013-11-07 20:03:00,61.7,44.0,29.96,West,260,0.0,0.0,53,0.00,,,0.00,weatherlink.com 1.10,2013-11-08 04:03:00,
2013-11-07 20:18:00,60.1,45.0,29.96,West,260,0.0,0.0,57,0.00,,,0.00,weatherlink.com 1.10,2013-11-08 04:18:00,
2013-11-07 20:33:00,58.6,45.0,29.95,West,261,0.0,0.0,60,0.00,,,0.00,weatherlink.com 1.10,2013-11-08 04:33:00,
2013-11-07 20:48:00,59.1,45.0,29.96,West,261,0.0,0.0,59,0.00,,,0.00,weatherlink.com 1.10,2013-11-08 04:48:00,
2013-11-07 21:03:00,59.5,45.0,29.96,West,261,0.0,1.0,59,0.00,,,0.00,weatherlink.com 1.10,2013-11-08 05:03:00,
2013-11-07 21:18:00,58.7,45.0,29.96,West,260,0.0,0.0,60,0.00,,,0.00,weatherlink.com 1.10,2013-11-08 05:18:00,
2013-11-07 21:33:00,58.2,45.0,29.96,West,261,0.0,0.0,63,0.00,,,0.00,weatherlink.com 1.10,2013-11-08 05:33:00,
2013-11-07 21:49:00,57.8,45.0,29.96,West,260,0.0,0.0,63,0.00,,,0.00,weatherlink.com 1.10,2013-11-08 05:49:00,
2013-11-07 22:04:00,57.7,45.0,29.97,West,260,0.0,0.0,64,0.00,,,0.00,weatherlink.com 1.10,2013-11-08 06:04:00,
2013-11-07 22:19:00,57.7,46.0,29.97,West,260,0.0,0.0,65,0.00,,,0.00,weatherlink.com 1.10,2013-11-08 06:19:00,
2013-11-07 22:34:00,57.3,46.0,29.97,West,260,0.0,0.0,65,0.00,,,0.00,weatherlink.com 1.10,2013-11-08 06:34:00,
2013-11-07 22:49:00,56.7,45.0,29.97,West,260,0.0,0.0,66,0.00,,,0.00,weatherlink.com 1.10,2013-11-08 06:49:00,
2013-11-07 23:04:00,56.1,46.0,29.96,West,261,0.0,0.0,68,0.00,,,0.00,weatherlink.com 1.10,2013-11-08 07:04:00,
2013-11-07 23:19:00,56.4,46.0,29.96,West,260,0.0,0.0,68,0.00,,,0.00,weatherlink.com 1.10,2013-11-08 07:19:00,
2013-11-07 23:34:00,55.8,45.0,29.96,West,260,0.0,0.0,68,0.00,,,0.00,weatherlink.com 1.10,2013-11-08 07:34:00,
2013-11-07 23:49:00,55.2,46.0,29.96,West,261,0.0,0.0,70,0.00,,,0.00,weatherlink.com 1.10,2013-11-08 07:49:00,